Regional Weather Roundup
Issued by NWS Memphis, TN

Home | Current Version | Previous Version | Text Only | Print | Product List | Glossary On
Versions: 1 2 3 4 5 6 7 8 9 10 11 12 13 14 15 16 17 18 19 20 21 22 23 24 25 26 27 28 29 30 31 32 33 34 35 36 37 38 39 40 41 42 43 44 45 46 47 48 49 50
000
ASUS44 KMEG 251810
RWRMEG
MEMPHIS CWA HOURLY WEATHER ROUNDUP
NATIONAL WEATHER SERVICE MEMPHIS TN
1200 PM CST SUN JAN 25 2015

...WEST TENNESSEE...

CITY           SKY/WX    TMP DP  RH WIND       PRES   REMARKS
MEMPHIS INTL   PTSUNNY   50  42  74 SW15G21   29.71F
6HR MIN TEMP:  40; 6HR MAX TEMP:  50; 6HR PCP:  0.06;

NWS MEMPHIS      N/A     46 N/A N/A MISG        N/A
JACKSON        LGT RAIN  46  40  79 SW13      29.68F
6HR MIN TEMP:  38; 6HR MAX TEMP:  50; 6HR PCP:  0.05;

LEXINGTON      MOSUNNY   48  37  66 SW10      29.67F
SAVANNAH       PTSUNNY   52  37  58 SW9       29.72F
DYERSBURG      CLOUDY    45  30  57 SW12G18   29.68F
6HR MIN TEMP:  39; 6HR MAX TEMP:  45;

UNION CITY     CLOUDY    43  41  93 SW10      29.63F
PARIS          PTSUNNY   43  37  81 SW8       29.65F


...EASTERN ARKANSAS...

CITY           SKY/WX    TMP DP  RH WIND       PRES   REMARKS
JONESBORO      MOSUNNY   53  44  71 W12       29.66F
6HR MIN TEMP:  41; 6HR MAX TEMP:  53; 6HR PCP:  0.05;

WEST MEMPHIS   PTSUNNY   49  44  83 SW9G20    29.70F
6HR MIN TEMP:  36; 6HR MAX TEMP:  49; 6HR PCP:  0.05;

BATESVILLE     CLOUDY    54  37  54 W16G22    29.69S
6HR MIN TEMP:  45; 6HR MAX TEMP:  55; 6HR PCP:  0.01;

NEWPORT        CLOUDY    57  41  55 NW15G26   29.68F
6HR MIN TEMP:  40; 6HR MAX TEMP:  59; 6HR PCP:  0.02;

WALNUT RIDGE   CLOUDY    54  43  66 W12       29.65F
BLYTHEVILLE    CLOUDY    45  42  89 SW15      29.67F
6HR MIN TEMP:  41; 6HR MAX TEMP:  45; 6HR PCP:  0.05;

SEARCY         MOSUNNY   60  39  45 W17G24    29.70F
6HR MIN TEMP:  42; 6HR MAX TEMP:  60; 6HR PCP: TRACE;

STUTTGART      SUNNY     59  41  51 W15G21    29.74F
6HR MIN TEMP:  39; 6HR MAX TEMP:  59;

PINE BLUFF     SUNNY     59  37  44 W18G24    29.75F
6HR MIN TEMP:  39; 6HR MAX TEMP:  59;

MONTICELLO     SUNNY     58  39  49 W12G22    29.77F
6HR MIN TEMP:  41; 6HR MAX TEMP:  58;



...NORTH MISSISSIPPI...

CITY           SKY/WX    TMP DP  RH WIND       PRES   REMARKS
TUPELO         CLOUDY    57  36  45 S17       29.74F
6HR MIN TEMP:  32; 6HR MAX TEMP:  58;

OXFORD         PTSUNNY   54  36  50 W14       29.75F
OLIVE BRANCH   PTSUNNY   45  45 100 SW12      29.72F
TUNICA         PTSUNNY   50  43  76 SW13      29.74F
CLARKSDALE     PTSUNNY   52  41  66 SW10      29.75F
CORINTH        CLOUDY    55  37  50 SW15      29.70F
GRENADA        CLOUDY    55  37  50 SW13G21   29.77F
GREENWOOD      CLOUDY    57  40  52 SW16G26   29.78F
6HR MIN TEMP:  40; 6HR MAX TEMP:  59;

COLUMBUS       PTSUNNY   58  39  49 S14G21    29.76F
6HR MIN TEMP:  32; 6HR MAX TEMP:  58;

STARKVILLE     FAIR      59  37  44 SW8G22    29.77F
GOLDEN TRIANGL MOSUNNY   57  39  51 S16G23    29.77F


...SOUTHEAST MISSOURI...

CITY           SKY/WX    TMP DP  RH WIND       PRES   REMARKS
WEST PLAINS    CLOUDY    48  40  73 W15G23    29.65S
6HR MIN TEMP:  43; 6HR MAX TEMP:  48; 6HR PCP:  0.05;

POPLAR BLUFF   LGT RAIN  43  41  93 SW6       29.62F FOG
6HR MIN TEMP:  40; 6HR MAX TEMP:  44; 6HR PCP:  0.62;

CAPE GIRARDEAU LGT RAIN  43  42  97 SW9       29.61F FOG
6HR MIN TEMP:  39; 6HR MAX TEMP:  43; 6HR PCP:  0.27;



...NORTHWEST ALABAMA...

CITY           SKY/WX    TMP DP  RH WIND       PRES   REMARKS
MUSCLE SHOALS  MOSUNNY   56  38  50 S13       29.72F
6HR MIN TEMP:  34; 6HR MAX TEMP:  56;



...MIDDLE TENNESSEE...

CITY           SKY/WX    TMP DP  RH WIND       PRES   REMARKS
NASHVILLE      PTSUNNY   56  36  47 S18G28    29.67F
6HR MIN TEMP:  31; 6HR MAX TEMP:  56;

CLARKSVILLE    CLOUDY    51  35  54 SW13      29.65F
6HR MIN TEMP:  38; 6HR MAX TEMP:  51;

COLUMBIA         N/A     54  43  66 S13       29.66F


...WESTERN KENTUCKY...

CITY           SKY/WX    TMP DP  RH WIND       PRES   REMARKS
PADUCAH        LGT RAIN  42  39  89 SW10      29.62F FOG
6HR MIN TEMP:  41; 6HR MAX TEMP:  44; 6HR PCP:  0.27;

FORT CAMPBELL  PTSUNNY   50  35  55 SW13      29.64F
6HR MIN TEMP:  39; 6HR MAX TEMP:  50;



...CENTRAL ARKANSAS...

CITY           SKY/WX    TMP DP  RH WIND       PRES   REMARKS
LITTLE ROCK    PTSUNNY   61  34  36 W21G28    29.73F
6HR MIN TEMP:  44; 6HR MAX TEMP:  62;



SKY/WX REPORTED AS FAIR MEANS FEW OR NO CLOUDS BELOW
12 THOUSAND FEET.



USA.gov is the U.S. government's official web portal to all federal, state and local government web resources and services.